Weather in Bilolutsk

Ukraine / Luhansk Region     49˚41′56″N   39˚01′41″E
temp.,
°C
wind,
m/s
gust,
m/s
humid.,
%
clouds,
%
prec.,
mm/h
press.,
hPa
HPBL,
m
1 december, tue
tue123:00−1˚ese5138397 0.0 1030548
02:00−2˚ese5128698 0.0 1030561
05:00−3˚ese5119095 0.0 1030488
08:00−3˚ese5118885 0.0 1031495
11:00−2˚ese6108217 0.0 1031567
14:00−2˚e6108322 0.0 1030490
17:00−4˚e511869 0.0 1031372
20:00−5˚e5108719 0.0 1032315
2 december, wed
wed223:00−5˚e5108668 0.0 1033356
02:00−6˚e598853 0.0 1033292
05:00−7˚e598845 0.0 1032328
08:00−6˚e6108772 0.0 1033361
11:00−4˚e6987100 0.0 1033397
14:00−4˚e5989100 0.1 1032480
17:00−4˚e5987100 0.1 1032507
20:00−3˚ese5984100 0.1 1033515
3 december, thu
thu323:00−4˚ese61083100 0.0 1033480
02:00−5˚ese6108499 0.0 1033432
05:00−4˚ese61187100 0.0 1032393
08:00−4˚ese61188100 0.2 1032452
11:00−2˚se6108899 0.4 1032531
14:00−3˚ese6109499 0.9 1031471
17:00−3˚ese61093100 0.6 1031488
20:00−3˚se5109499 0.8 1032506
4 december, fri
fri423:00−3˚se5996100 0.6 1031446
02:00−3˚ese5896100 1.1 1031419
05:00−3˚ese5994100 0.4 1031414
08:00−3˚ese5994100 0.6 1031432
11:00−3˚ese599396 0.3 1031456
14:00−3˚ese599598 0.5 1031459
17:00−3˚ese499496 0.3 1031471
20:00−3˚ese5108592 0.4 1032492
5 december, sat
sat523:00−5˚e598474 0.0 1032298
02:00−6˚e488476 0.0 1032307
05:00−6˚e588589 0.0 1032316
08:00−5˚ese588595 0.0 1033332
11:00−5˚e578450 0.0 1033345
14:00−5˚e588426 0.0 1033327
17:00−7˚e49860 0.0 1034229
20:00−8˚e48830 0.0 1035200